Home   Weather   Bautzen   Past weeks

Flag for Germany Past Weather in Bautzen, Saxony, Germany — Yesterday and Last 2 Weeks

Now
23 °F

Clear.


Feels Like: 17 °F
Forecast: 25 / 33 °F
Wind: 5 mph from South

Location: Dresden-Klotzsche

Current Time: Dec 5, 2016 at 3:23:10 am

Latest Report: Dec 5, 2016 at 2:50 am


Visibility: 10 mi

Pressure: 30.39 "Hg

Humidity: 93%

Dew Point: 21 °F

Location of BautzenLocation

Past Weather in Bautzen — Graph

°F

Bautzen Temperature Yesterday

Maximum temperature yesterday: 36 °F (at 12:50 pm)
Minimum temperature yesterday: 23 °F (at 3:50 am)
Average temperature yesterday: 27 °F

High & Low Weather Summary for the Past Weeks

 TemperatureHumidityPressure
High54 °F (Nov 21, 12:20 pm)100% (Nov 23, 11:20 pm)30.54 "Hg (Nov 23, 11:20 pm)
Low21 °F (Nov 30, 1:50 am)44% (Nov 30, 11:20 am)29.71 "Hg (Nov 20, 11:50 am)
Average37 °F88%30.12 "Hg
* Reported Nov 20 2:20 am — Dec 5 2:20 am, Bautzen, Weather by CustomWeather, © 2016

Note: Actual official high and low records may vary slightly from our data, if they occured in-between our weather recording intervals... More about our weather records

Advertising

Bautzen Weather History for the Previous 24 Hours

Scroll right to see more
 ConditionsComfort  
Time TempWeatherWind HumidityBarometerVisibility
2:20 am
Mon, Dec 5
23 °FClear.5 mph93%30.39 "Hg10 mi
1:50 am23 °FClear.5 mph93%30.39 "Hg10 mi
1:20 am23 °FClear.5 mph93%30.39 "Hg10 mi
12:50 am23 °FClear.1 mph93%30.39 "Hg10 mi
12:20 am23 °FClear.3 mph100%30.39 "Hg10 mi
11:50 pm
Sun, Dec 4
25 °FClear.3 mph93%30.39 "Hg10 mi
11:20 pm23 °FClear.5 mph100%30.39 "Hg10 mi
10:50 pm23 °FClear.6 mph93%30.39 "Hg10 mi
10:20 pm23 °FClear.5 mph100%30.39 "Hg10 mi
9:50 pm25 °FClear.6 mph93%30.42 "Hg10 mi
9:20 pm25 °FClear.7 mph93%30.42 "Hg10 mi
8:50 pm27 °FClear.3 mph86%30.42 "Hg10 mi
8:20 pm27 °FClear.3 mph86%30.42 "Hg10 mi
7:50 pm27 °FClear.3 mph93%30.42 "Hg10 mi
7:20 pm28 °FClear.3 mph93%30.42 "Hg10 mi
6:50 pm27 °FClear.6 mph93%30.39 "Hg10 mi
6:20 pm30 °FClear.3 mph86%30.39 "Hg10 mi
5:50 pm30 °FClear.2 mph86%30.42 "Hg10 mi
5:20 pm32 °FClear.1 mph87%30.39 "Hg10 mi
4:50 pm32 °FClear.1 mph80%30.39 "Hg10 mi
4:20 pm32 °FClear.No wind80%30.39 "Hg10 mi
3:50 pm34 °FSunny.2 mph75%30.39 "Hg10 mi
3:20 pm34 °FSunny.2 mph75%30.39 "Hg10 mi
2:50 pm36 °FSunny.2 mph70%30.39 "Hg10 mi
2:20 pm36 °FSunny.1 mph70%30.39 "Hg10 mi
1:50 pm36 °FSunny.1 mph70%30.39 "Hg10 mi
1:20 pm36 °FSunny.1 mph70%30.39 "Hg10 mi
12:50 pm36 °FSunny.1 mph70%30.39 "Hg10 mi
12:20 pm34 °FSunny.1 mph70%30.42 "Hg10 mi
11:50 am32 °FSunny.2 mph75%30.42 "Hg10 mi
11:20 am30 °FPassing clouds.3 mph86%30.42 "HgN/A
10:50 am28 °FSunny.3 mph93%30.42 "Hg10 mi
10:20 am28 °FSunny.3 mph93%30.42 "Hg10 mi
9:50 am27 °FSunny.6 mph93%30.42 "Hg10 mi
9:20 am25 °FSunny.6 mph100%30.39 "Hg10 mi
8:50 am23 °FSunny.6 mph100%30.39 "Hg10 mi
8:20 am23 °FSunny.5 mph100%30.39 "Hg10 mi
7:50 am23 °FClear.6 mph100%30.36 "Hg10 mi
7:20 am23 °FClear.5 mph100%30.36 "Hg10 mi
6:50 am23 °FClear.5 mph100%30.36 "Hg10 mi
6:20 am23 °FClear.6 mph100%30.36 "Hg10 mi
5:50 am23 °FClear.5 mph100%30.36 "Hg10 mi
5:20 am25 °FClear.5 mph93%30.36 "Hg10 mi
4:50 am23 °FClear.3 mph100%30.36 "Hg10 mi
4:20 am23 °FClear.3 mph100%30.36 "Hg10 mi
3:50 am23 °FClear.3 mph100%30.36 "Hg10 mi
3:20 am25 °FClear.6 mph93%30.36 "Hg10 mi
Weather by CustomWeather, © 2016

See weather overviewHow to use our weather pages